ECMWFNIL_700_spd_342.txt.gz
Wind_Speed
28 28 27 27 26 26 25 24 24 23 23 24 25 26 28 31 33 34 35 35 35 34 34 34 33 33 32 32 32 32 33 34 35 35 35 35 34 32 30 30 29 27
28 28 28 27 26 26 26 25 25 24 24 24 24 25 27 29 32 34 36 36 36 35 35 34 34 34 34 34 34 35 35 35 36 36 36 37 36 34 33 32 31 28
29 28 28 27 27 26 26 25 25 25 25 25 24 25 26 28 30 33 35 36 36 35 35 35 35 35 34 35 35 36 36 36 36 37 37 38 38 36 35 34 32 30
29 29 28 27 27 26 26 26 25 25 25 25 25 26 26 27 28 30 33 36 36 35 36 35 36 36 36 36 36 35 36 37 37 38 38 39 38 37 36 35 32 31
29 30 29 28 27 26 26 26 26 26 26 26 26 27 27 28 28 29 31 34 36 36 36 36 36 36 36 38 37 36 37 37 36 36 37 37 37 36 36 35 33 31
30 30 30 29 27 26 27 27 26 27 27 27 27 27 28 28 29 30 30 32 34 36 36 36 36 36 36 36 36 36 36 36 36 37 37 38 38 37 37 36 34 32
31 30 30 29 28 27 26 27 27 28 28 28 28 28 28 29 29 30 30 30 31 33 34 35 35 35 35 34 34 35 36 37 37 37 38 39 40 39 38 37 35 32
32 31 30 30 29 28 27 27 27 28 28 28 28 28 28 29 29 29 28 29 29 31 32 33 34 35 34 34 35 36 37 37 37 37 38 39 40 40 39 38 36 33
33 32 31 30 30 29 28 27 27 28 28 28 28 28 28 28 29 28 27 27 29 30 32 33 34 34 35 35 36 37 37 37 38 39 39 40 40 40 40 39 36 34
34 33 32 31 30 30 29 28 28 28 28 28 28 28 28 28 28 28 27 27 29 31 33 34 34 34 35 35 36 37 37 37 39 40 40 40 40 40 40 40 40 38
34 33 33 32 31 30 29 28 28 29 29 29 29 29 28 28 28 28 27 28 30 32 33 34 35 35 35 35 36 38 38 39 40 40 41 41 41 42 43 44 43 40
35 34 33 32 31 30 29 28 29 29 30 30 30 30 29 28 27 27 27 28 30 33 34 34 34 34 35 36 37 38 39 40 40 40 40 40 41 42 42 41 39 36
35 34 34 33 32 30 29 29 30 30 31 30 30 30 29 28 27 26 27 28 31 34 35 35 35 35 36 37 38 39 39 39 39 39 38 38 38 37 37 36 36 36
35 34 33 32 31 30 29 29 31 31 31 30 29 29 28 27 27 27 28 30 32 35 37 37 38 37 37 38 38 39 39 39 38 37 36 35 35 34 34 35 36 36
35 34 33 31 30 30 30 30 31 31 32 31 29 28 28 27 27 27 29 31 34 36 38 38 37 37 37 37 38 38 38 37 36 35 34 34 34 34 34 35 35 35
35 34 32 30 30 30 30 30 31 31 31 31 29 27 27 27 27 27 29 31 34 36 38 37 35 34 35 36 37 37 36 36 35 34 34 33 34 34 34 34 35 36
35 33 31 30 29 29 30 30 30 30 30 29 27 26 26 27 27 27 28 31 34 35 35 33 31 31 33 34 35 35 35 35 34 34 34 33 33 33 33 34 34 35
34 33 31 30 29 29 30 29 29 30 29 27 26 26 25 26 26 27 29 31 32 32 30 29 28 30 31 32 33 33 33 33 33 32 32 31 31 31 32 33 34 34
33 32 31 30 30 30 30 29 29 29 28 27 26 25 24 25 26 27 29 29 29 28 26 25 26 28 29 30 31 31 31 31 30 29 29 29 30 31 32 33 33 33
33 32 31 30 30 30 30 30 29 29 28 28 26 25 24 25 26 28 28 27 26 24 23 23 25 27 28 29 29 29 28 28 28 28 29 30 31 31 32 32 31 30
32 32 31 31 31 31 31 31 30 29 28 27 26 25 25 26 27 27 27 26 23 22 21 22 24 25 27 27 27 27 26 26 27 28 30 31 31 30 30 29 27 25
32 31 31 31 31 31 31 31 30 29 28 27 26 25 25 26 26 26 25 23 22 21 21 22 23 24 25 25 24 25 25 27 29 30 30 30 29 28 26 25 24 24
32 31 31 30 31 31 31 30 30 29 27 25 24 23 23 23 24 24 23 22 21 20 20 21 22 23 23 23 23 25 27 29 30 30 29 28 26 25 24 24 24 24
31 31 30 30 30 31 31 30 29 27 25 23 22 21 21 22 23 24 23 21 20 20 20 21 21 21 22 23 25 27 28 29 28 27 27 25 24 23 23 24 24 25
31 31 30 30 30 30 31 29 27 25 24 23 22 21 21 22 23 24 23 22 20 20 21 21 21 22 23 25 27 27 27 27 27 26 25 24 23 23 24 25 25 26
32 31 30 30 30 30 30 28 26 24 23 23 22 22 22 23 23 23 23 22 22 21 21 21 22 23 25 26 27 27 27 26 25 25 24 24 24 24 25 26 27 28

ECMWFNIL_700_spd_348.txt.gz
Wind_Speed
36 32 30 29 29 27 26 25 26 25 25 26 26 27 28 28 28 28 28 28 28 28 28 28 29 29 29 29 30 31 33 35 37 39 40 41 41 40 39 37 36 35
39 34 31 30 30 28 27 26 26 26 26 26 27 28 29 30 30 29 29 29 29 29 29 29 29 30 30 30 31 32 33 35 37 39 41 43 42 41 39 37 37 36
42 38 34 32 32 30 28 28 27 27 27 27 28 29 30 31 31 31 31 30 30 30 30 30 30 30 31 31 32 33 34 36 38 39 41 43 43 42 39 37 36 36
43 40 36 34 33 32 30 29 28 28 28 28 29 29 30 31 32 32 32 31 31 31 31 32 31 31 31 32 33 33 34 36 38 39 40 42 43 42 39 38 37 37
43 41 39 36 34 34 32 30 29 29 29 29 30 30 31 32 32 33 33 33 33 32 32 32 32 33 33 33 33 34 34 35 36 38 39 40 41 41 40 38 37 38
42 41 41 37 35 35 33 31 30 29 29 30 30 31 31 32 32 33 34 34 34 33 33 33 32 32 33 33 34 34 34 34 35 36 37 38 38 38 38 37 37 38
41 40 41 38 36 35 33 32 30 30 30 31 31 32 32 32 32 33 34 34 34 34 33 33 32 32 32 33 34 34 33 33 33 33 34 35 36 36 36 36 37 37
41 40 41 39 36 35 34 32 31 31 31 32 32 33 33 33 33 33 34 34 34 34 34 33 32 32 32 32 33 33 33 32 31 30 30 32 34 34 35 36 36 36
41 39 40 39 36 35 34 32 31 32 32 33 34 34 35 34 33 33 33 34 34 34 34 33 32 32 32 32 32 32 32 31 29 28 28 30 32 33 34 35 36 36
40 39 39 38 36 35 34 32 32 32 33 34 35 35 35 35 34 33 33 34 34 34 34 33 33 33 33 32 32 32 31 29 28 27 28 29 31 33 34 35 36 36
39 38 38 39 37 35 34 32 32 33 34 35 36 36 36 35 34 34 34 34 34 33 33 33 33 33 33 32 32 31 29 28 28 27 27 29 31 33 35 36 36 36
39 37 38 39 37 34 33 32 32 33 34 36 36 36 36 35 35 34 34 34 34 33 33 33 33 33 33 32 31 30 28 28 28 28 28 29 30 33 35 36 37 37
38 37 38 39 36 34 33 32 33 34 35 36 37 36 36 35 35 34 34 34 34 33 33 32 32 32 32 32 31 29 27 28 29 31 32 32 33 35 36 37 38 37
37 37 38 38 35 33 33 33 33 34 35 36 36 36 35 35 35 34 33 33 33 33 32 32 32 32 31 31 30 28 28 28 30 32 33 34 35 36 37 37 37 37
36 37 37 35 34 33 33 34 34 34 35 36 36 36 35 35 35 34 33 33 33 32 32 32 32 32 31 31 30 28 28 29 30 32 33 35 36 36 35 35 36 36
35 35 34 33 33 34 34 34 35 35 36 36 36 36 35 35 35 34 33 33 33 33 32 32 32 31 31 31 30 28 27 28 29 31 33 34 34 34 33 34 35 35
33 33 32 33 34 34 35 35 35 36 36 37 37 36 35 35 34 33 33 33 33 33 33 33 32 32 31 31 30 27 26 27 28 29 31 32 32 31 32 32 33 34
31 32 32 33 34 34 35 35 36 36 37 37 37 36 35 34 33 33 33 33 34 34 34 33 32 33 32 31 29 27 26 28 29 31 31 31 30 29 30 31 32 33
32 33 33 33 34 34 35 36 36 36 37 37 36 35 34 34 33 34 34 34 35 35 35 34 33 34 33 31 29 27 27 29 30 31 30 29 28 27 28 29 31 31
32 33 32 33 34 35 36 36 36 36 36 36 35 34 33 34 34 34 34 35 35 35 35 35 34 34 33 31 30 29 28 28 29 30 29 27 26 26 27 28 29 29
31 32 32 34 35 35 37 38 37 36 37 36 35 34 33 33 33 34 35 36 36 36 36 36 35 34 32 30 30 29 28 28 29 30 28 26 25 25 26 26 27 28
30 32 33 35 36 36 38 38 38 38 38 36 35 34 34 34 33 34 36 37 37 37 37 37 36 34 31 30 29 29 29 30 30 29 28 26 25 24 25 25 26 26
31 32 34 36 36 37 38 38 39 39 38 37 37 37 37 36 35 36 37 38 38 37 37 37 37 34 31 30 30 29 29 30 30 29 27 25 24 23 24 24 24 25
34 35 36 37 37 38 38 40 40 40 39 39 39 39 40 39 38 38 39 39 39 38 38 38 36 34 32 31 30 30 30 30 29 29 27 25 23 23 24 24 24 25
37 38 39 40 40 40 41 42 43 42 40 40 41 41 41 41 40 40 40 40 40 38 38 37 35 33 32 31 30 30 31 31 30 29 28 26 24 24 24 25 25 25
36 39 41 42 42 43 44 45 45 43 42 42 42 42 41 41 41 40 41 41 40 39 37 36 34 32 31 31 30 30 31 31 31 30 28 26 25 25 25 25 25 26

ECMWFNIL_700_spd_354.txt.gz
Wind_Speed
36 36 36 36 37 38 37 38 38 38 37 37 35 33 31 31 31 30 29 28 28 29 29 30 30 29 29 29 29 29 29 29 30 30 30 30 30 30 31 31 32 34
36 36 35 35 36 38 39 39 38 38 38 37 37 36 34 32 32 32 30 29 28 29 30 30 30 30 31 31 31 30 30 31 31 31 32 32 32 32 32 32 32 33
36 36 35 35 36 37 39 39 38 38 39 38 38 38 36 34 33 33 32 30 29 29 30 30 31 31 31 32 32 32 32 32 33 33 33 33 33 33 33 33 34 34
37 37 37 36 36 37 39 39 38 38 39 39 39 39 38 36 34 33 33 32 30 30 30 31 31 32 32 32 33 33 33 34 34 35 35 34 34 34 34 35 35 35
38 37 36 36 36 37 39 39 39 39 39 40 40 40 39 38 36 34 34 33 31 31 31 32 32 33 33 33 34 34 34 35 35 36 36 35 34 34 34 35 36 36
37 36 35 35 36 37 39 40 39 39 39 40 41 41 40 39 38 36 35 34 33 32 32 33 33 34 34 35 35 35 35 35 36 36 36 36 36 35 34 34 35 36
36 35 34 34 34 35 37 39 40 40 40 40 41 41 40 39 39 38 36 35 34 33 32 33 34 35 35 36 36 36 36 36 36 36 36 36 36 35 35 35 35 36
32 31 31 31 32 32 34 37 39 40 40 41 42 41 39 39 40 39 38 36 35 34 33 34 35 36 37 37 37 37 37 36 36 36 36 36 36 35 35 35 35 36
28 28 28 29 29 29 31 34 37 38 39 41 42 41 39 39 40 40 38 37 36 35 34 35 36 37 38 38 38 38 37 36 36 36 36 35 35 34 34 34 35 35
27 26 26 27 27 28 29 31 33 35 37 39 40 39 39 40 41 40 39 38 37 36 36 36 37 38 38 38 38 38 37 36 36 36 36 35 35 34 34 33 34 34
26 25 25 25 26 27 28 29 30 32 33 35 37 37 38 40 40 40 39 38 38 38 38 38 38 38 38 38 38 38 37 36 36 35 35 35 35 34 33 33 33 33
25 24 24 24 24 25 26 27 28 29 30 32 33 35 37 39 40 40 39 39 39 39 39 39 38 38 38 38 38 37 36 35 35 35 35 34 34 34 33 32 32 32
24 23 23 22 23 23 23 24 26 27 28 29 31 33 35 37 39 39 39 39 40 40 39 38 38 38 38 37 36 35 34 34 34 34 34 34 33 33 33 32 32 32
24 23 23 22 22 23 23 23 24 25 27 28 30 32 33 36 38 39 39 40 40 40 39 38 37 37 37 36 35 34 34 33 33 33 33 33 32 32 32 32 32 32
23 23 23 22 23 24 24 24 25 25 26 28 30 32 34 36 37 39 40 40 40 40 38 38 37 37 37 36 35 34 33 33 32 32 32 32 31 31 32 32 32 33
23 23 22 23 24 25 26 27 27 28 29 30 32 34 35 37 38 39 40 40 40 40 39 39 38 38 38 37 35 34 33 33 32 32 31 31 31 31 31 32 33 33
25 24 23 24 25 26 27 29 30 32 32 33 34 36 36 37 38 39 40 40 41 40 40 40 40 39 39 38 36 34 32 32 32 31 31 31 31 31 31 32 32 33
26 26 25 26 26 27 29 30 31 33 34 35 36 36 37 38 38 39 39 40 41 41 41 42 41 41 40 39 38 36 34 32 31 31 31 31 31 32 32 32 32 33
27 28 28 29 29 30 30 30 30 32 33 35 37 37 38 38 38 38 39 40 41 42 42 42 42 42 41 41 40 38 35 33 32 32 32 31 31 32 32 33 33 32
30 30 31 31 31 31 31 31 31 31 33 36 38 39 39 39 39 40 40 41 42 42 43 43 43 43 43 42 41 39 36 33 32 33 34 33 33 33 33 34 33 32
32 32 33 33 33 32 32 32 32 32 34 36 38 40 41 41 41 42 43 43 43 43 44 45 45 45 45 44 42 39 34 31 32 34 34 33 33 34 35 35 33 31
34 34 34 34 34 34 34 33 33 34 35 37 39 40 42 42 43 43 44 44 44 45 45 46 46 47 46 43 40 36 32 31 35 36 34 32 33 34 36 35 33 31
36 36 36 36 36 36 35 35 35 35 37 39 40 42 43 43 43 43 44 44 44 45 45 47 48 48 44 41 37 33 32 35 37 36 33 32 32 34 36 34 31 31
38 37 37 38 38 38 38 38 38 38 38 39 41 42 44 44 44 45 44 44 43 43 44 46 47 45 42 38 34 32 34 37 37 35 34 33 33 34 35 32 30 31
39 39 39 40 41 42 42 41 41 40 39 39 40 42 43 44 45 45 43 42 41 41 42 44 43 39 37 35 32 33 36 36 35 36 35 33 32 33 33 30 29 30
40 40 41 42 43 43 42 41 40 39 39 39 40 41 42 42 43 43 42 41 40 40 41 41 40 37 35 34 34 36 37 36 36 38 36 33 33 33 32 29 28 29

ECMWFNIL_700_spd_360.txt.gz
Wind_Speed
36 37 38 38 37 37 36 36 35 34 33 33 34 35 35 34 34 34 34 35 36 37 37 37 37 37 36 35 34 34 33 33 33 33 33 33 33 34 34 33 33 34
37 38 38 39 38 38 38 37 37 36 35 35 36 36 37 37 37 36 35 35 36 38 38 38 38 38 38 37 36 35 35 35 34 34 34 33 34 34 34 34 34 34
38 40 40 40 40 39 38 37 36 36 36 36 37 37 38 38 38 38 36 35 36 38 38 38 39 39 39 38 38 37 37 37 36 35 34 34 34 34 35 35 35 35
40 40 41 41 40 38 37 36 36 35 36 37 37 38 38 39 39 39 38 36 36 38 38 38 39 40 39 39 40 39 38 38 37 36 35 35 35 35 35 35 35 35
41 40 40 40 38 36 35 35 35 35 36 37 37 37 38 39 39 40 39 38 37 38 38 38 39 40 40 40 41 40 39 39 39 38 37 36 36 36 35 36 36 36
40 38 38 36 35 34 34 34 35 35 36 36 36 37 38 39 39 40 41 40 40 40 40 39 39 39 40 41 42 41 41 40 40 39 38 38 37 37 36 36 36 36
37 35 34 33 32 32 33 34 34 35 35 35 36 37 38 39 40 41 41 41 41 41 41 40 39 39 40 41 42 42 42 42 41 40 40 40 39 38 37 37 37 36
34 33 32 31 31 32 33 33 34 34 34 35 35 36 37 38 39 40 41 41 41 41 41 41 41 40 40 41 42 42 43 42 42 42 41 41 41 40 39 38 37 37
33 32 32 31 32 32 32 33 33 34 34 35 35 36 36 36 37 38 39 39 39 39 40 40 41 41 41 41 42 42 42 42 42 43 42 42 42 41 40 39 38 37
32 31 31 31 31 31 31 32 32 32 33 33 34 35 35 35 35 35 36 36 36 36 37 38 39 40 40 41 41 41 41 42 42 43 43 43 43 42 41 40 38 37
30 31 31 30 30 30 31 31 31 31 32 32 33 33 33 33 33 33 33 33 34 34 35 35 36 37 38 38 39 40 41 41 43 43 44 44 44 43 42 40 38 37
30 30 30 30 30 30 31 31 31 31 31 31 32 32 32 32 32 32 32 33 33 34 34 34 35 35 36 37 38 39 40 41 43 44 44 44 44 43 42 41 39 38
29 29 30 30 30 31 31 31 31 31 31 31 31 32 32 33 32 33 33 33 34 35 35 36 36 36 37 38 39 40 41 42 43 44 45 45 44 44 43 42 41 40
30 30 31 31 31 31 31 31 32 32 32 32 32 33 33 33 33 34 34 35 36 37 37 38 39 39 40 40 41 42 42 43 44 44 45 45 45 45 44 43 42 41
31 31 32 32 32 32 32 32 32 32 32 33 33 34 34 35 35 35 36 37 38 39 40 40 40 41 41 42 43 43 44 44 45 45 46 45 45 44 44 44 43 43
33 34 34 33 33 32 32 32 32 32 33 33 33 34 35 36 36 37 38 39 40 40 40 40 40 41 41 42 43 44 45 46 47 47 46 45 44 44 44 44 45 45
35 35 34 33 32 32 32 31 31 31 31 32 32 33 34 36 37 38 40 41 41 41 41 41 40 40 41 42 43 45 46 47 47 47 45 44 44 45 46 46 46 46
35 35 33 32 32 31 31 30 30 30 30 31 32 33 35 36 38 40 41 42 42 42 42 42 41 41 42 43 44 46 47 48 48 46 44 42 43 45 47 47 47 46
35 33 32 32 31 30 30 29 29 30 30 31 33 34 36 38 39 41 42 42 43 43 43 43 43 43 44 45 47 48 48 49 48 45 43 41 43 46 48 47 46 43
33 33 32 31 30 29 29 30 30 31 32 33 35 36 38 40 41 42 42 43 43 43 43 43 43 44 45 46 48 49 49 49 47 45 43 41 41 44 44 43 41 39
32 32 31 31 30 30 30 31 32 33 34 35 37 38 40 41 42 43 43 43 43 43 43 43 43 44 44 45 46 47 47 46 45 43 41 39 38 38 36 34 34 33
32 31 30 30 31 31 32 33 33 35 36 36 38 39 41 42 43 44 44 44 43 42 42 43 43 43 43 43 44 44 44 44 43 42 40 39 38 36 33 32 31 31
32 31 31 32 32 33 34 35 36 37 37 38 39 40 41 42 43 44 44 44 43 43 43 44 43 42 41 41 42 43 43 43 42 41 40 38 37 35 33 32 32 32
32 33 33 34 35 36 37 38 39 39 40 40 41 41 41 42 42 43 43 43 43 43 44 44 43 42 41 40 41 42 43 43 43 41 39 37 36 35 33 32 32 31
35 36 37 38 39 40 40 41 41 42 42 42 42 42 42 43 43 43 43 43 44 44 45 45 44 43 42 41 41 41 42 43 43 40 37 36 36 35 35 35 35 33
38 39 41 42 43 43 44 44 44 43 43 43 43 43 43 43 44 44 43 44 44 44 45 46 45 45 44 44 43 42 42 42 42 41 40 38 37 37 38 38 38 36